User: anonymous   Login
Location: Unspecified
(0.0000°N, 0.0000°E)
Time: 20:14:31
(UTC+00:00)
Language:

Galileo 6 - Orbit

View from above orbital plane
View from above orbital plane
View from above satellite
View from above satellite

Ground track
Ground track

The orbit data is extracted from the following two-line orbital elements,

1 40129U 14050B   24110.59574140 -.00000060  00000-0  00000-0 0  9996
2 40129  49.7362 304.4911 1607678 149.7370 220.6141  1.85520280 65858
Epoch (UTC): 19 April 2024 14:17:52
Eccentricity: 0.1607678
inclination: 49.7362°
perigee height: 17101 km
apogee height: 26097 km
right ascension of ascending node: 304.4911°
argument of perigee: 149.7370°
revolutions per day: 1.85520280
mean anomaly at epoch: 220.6141°
orbit number at epoch: 6585

The dashed part of the orbit path shows where the satellite is in the earth's shadow,  

DLR